Regional Weather Roundup
Issued by NWS

Home | Current Version | Previous Version | Text Only | Print | Product List | Glossary On
Versions: 1 2 3 4 5 6 7 8 9 10 11 12 13 14 15 16 17 18 19 20 21 22 23 24 25 26 27 28 29 30 31 32 33 34 35 36 37 38 39 40 41 42 43 44 45 46 47 48 49 50
000
ASUS44 KJAN 020310
RWRMS

MISSISSIPPI HOURLY WEATHER ROUNDUP
NATIONAL WEATHER SERVICE JACKSON MS
1000 PM CDT WED APR 01 2015

NOTE: "FAIR: INDICATES FEW OR NO CLOUDS BELOW 12,000 FEET WITH NO
SIGNIFICANT WEATHER AND/OR OBSTRUCTIONS TO VISIBILITY.

MSZ001>002-007>008-010>013-018>021-025>028-034>036-020400-
NORTHWEST MISSISSIPPI

CITY           SKY/WX    TMP DP  RH WIND       PRES   REMARKS
CLARKSDALE     FAIR      68  61  77 SE7       29.96F
CLEVELAND      FAIR      70  62  75 SE13      29.96R
GREENWOOD      CLEAR     69  59  70 SE9       29.99R
GREENVILLE     CLEAR     69  57  65 S8        29.95R
OLIVE BRANCH   CLEAR     66  66 100 S7        29.97S
OXFORD         FAIR      68  59  73 S9        30.01S
TUNICA         MOCLDY    68  61  77 SE10      29.96F
$$

MSZ003>006-009-014>017-022>024-029>033-037>039-020400-
NORTHEAST MISSISSIPPI

CITY           SKY/WX    TMP DP  RH WIND       PRES   REMARKS
COLUMBUS AFB   PTCLDY    64  57  77 S6        30.02S
CORINTH        CLOUDY    66  64  94 CALM      30.00R
GOLDN TRIANGLE PTCLDY    66  55  68 S7        30.03S
STARKVILLE     FAIR      64  59  82 S3        30.03S HAZE
TUPELO         PTCLDY    68  60  75 SW5       30.02R
$$

MSZ040-058-020400-
CENTRAL MISSISSIPPI

CITY           SKY/WX    TMP DP  RH WIND       PRES   REMARKS
JACKSON INTL   CLOUDY    69  59  70 SE9       30.01R
JACKSON HAWKNS MOCLDY    71  59  65 S7        30.01S
MERIDIAN KEY   CLOUDY    63  60  90 S7        30.05R
MERIDIAN NAS   MOCLDY    66  59  78 SE3       30.05R
RAYMOND        FAIR      72  68  88 S9        30.00S
VICKSBURG      CLOUDY    72  57  59 S5        29.98S
$$

MSZ059>079-020400-
SOUTH MISSISSIPPI

CITY           SKY/WX    TMP DP  RH WIND       PRES   REMARKS
BROOKHAVEN     FAIR      70  63  78 CALM      30.04S
HATTIESBURG    MOCLDY    71  65  81 S9        30.07R
MCCOMB         CLOUDY    68  62  81 S5        30.03R
NATCHEZ        CLOUDY    72  61  68 S6        30.00S
PINE BELT      CLOUDY    70  63  78 S6        30.07R
$$

MSZ080>082-020400-
COASTAL MISSISSIPPI

CITY           SKY/WX    TMP DP  RH WIND       PRES   REMARKS
BILOXI         CLOUDY    71  70  95 S6        30.07R
PASCAGOULA     CLOUDY    71  67  87 S5        30.08R
GULFPORT       CLOUDY    72  68  87 S8        30.06S
$$


USA.gov is the U.S. government's official web portal to all federal, state and local government web resources and services.